This demonstration page uses our WeatherBlox Daily Observations layout. Learn more.

Left ArrowRight Arrow

Hourly Observations for November 16, 2019

Temp ( °F °C ) Dew Point ( °F °C ) Humidity (%) Winds ( mph kmh ) Pressure ( in mb ) Visibility ( mi km ) Precip ( " mm )
12:53 am 00:53 Clear 42 5.6 29 -1.7 60 60 S 10 17 30.07 1018 10 16 0.00 0.00
1:53 am 01:53 Clear 41 5 29 -1.7 62 62 S 12 19 30.05 1018 10 16 0.00 0.00
2:53 am 02:53 Clear 40 4.4 29 -1.7 65 65 S 9 15 30.04 1017 10 16 0.00 0.00
3:53 am 03:53 Clear 39 3.9 28 -2.2 65 65 S 10 17 30.04 1017 10 16 0.00 0.00
4:53 am 04:53 Clear 38 3.3 28 -2.2 68 68 S 10 17 30.04 1017 10 16 0.00 0.00
5:53 am 05:53 Clear 38 3.3 28 -2.2 68 68 SSE 13 20 30.03 1017 10 16 0.00 0.00
6:53 am 06:53 Clear 36 2.2 28 -2.2 73 73 S 9 15 30.04 1017 10 16 0.00 0.00
7:53 am 07:53 Sunny 36 2.2 28 -2.2 73 73 S 8 13 30.04 1017 10 16 0.00 0.00
8:53 am 08:53 Sunny 39 3.9 29 -1.7 67 67 S 13 20 30.03 1017 10 16 0.00 0.00
9:53 am 09:53 Sunny 43 6.1 30 -1.1 60 60 S 10 17 30.01 1016 10 16 0.00 0.00
10:53 am 10:53 Sunny 47 8.3 31 -0.6 54 54 S 10 17 30.01 1016 10 16 0.00 0.00
11:53 am 11:53 Sunny 51 10.6 31 -0.6 46 46 SSW 13 20 29.98 1015 10 16 0.00 0.00
12:53 pm 12:53 Sunny 54 12.2 31 -0.6 42 42 SSW 9 15 29.95 1014 10 16 0.00 0.00
1:53 pm 13:53 Sunny 56 13.3 31 -0.6 39 39 S 9 15 29.92 1013 10 16 0.00 0.00
2:53 pm 14:53 Sunny 57 13.9 31 -0.6 37 37 S 13 20 29.89 1012 10 16 0.00 0.00
3:53 pm 15:53 Sunny 57 13.9 31 -0.6 37 37 SSW 8 13 29.91 1013 10 16 0.00 0.00
4:53 pm 16:53 Sunny 55 12.8 32 0 42 42 SSW 3 6 29.92 1013 10 16 0.00 0.00
5:53 pm 17:53 Clear 47 8.3 30 -1.1 52 52 WNW 5 7 29.96 1015 9 14 0.00 0.00
6:53 pm 18:53 Clear 48 8.9 31 -0.6 52 52 W 3 6 29.99 1016 10 16 0.00 0.00
7:53 pm 19:53 Clear 48 8.9 32 0 54 54 WNW 13 20 30.02 1017 10 16 0.00 0.00
8:14 pm 20:14 Mostly Cloudy 51 10.6 33 0.6 50 50 N 15 24 29.99 1016 10 16 0.00 0.00
8:53 pm 20:53 Partly Cloudy 50 10 33 0.6 52 52 N 15 24 30.02 1017 10 16 0.00 0.00
9:53 pm 21:53 Clear 50 10 34 1.1 54 54 NNW 17 28 30.03 1017 10 16 0.00 0.00
10:53 pm 22:53 Clear 47 8.3 35 1.7 63 63 N 14 22 30.04 1017 10 16 0.00 0.00
11:53 pm 23:53 Clear 44 6.7 35 1.7 71 71 NNW 9 15 30.06 1018 10 16 0.00 0.00

Powered by AerisWeather